KB6OQJ Weather Reports


Display with metric or nautical units.
time (UTC)temp
F
wind
direction
speed
MPH
gust
MPH
rain 1hr
in
rain 24hr
in
rain mn
in
humidity
%
barometer
mb
20260901101004 94 5 0.0 0.0 0.00 0.00 0.00 35 936.9
20260901100004 94 5 0.0 0.0 0.00 0.00 0.00 35 936.9
20260901095004 94 5 0.0 0.0 0.00 0.00 0.00 35 936.9
20260901094004 94 5 0.0 0.0 0.00 0.00 0.00 35 936.9
20260901093003 94 5 0.0 0.0 0.00 0.00 0.00 35 936.9
20260901092004 94 5 0.0 0.0 0.00 0.00 0.00 35 936.9
20260901091003 94 5 0.0 0.0 0.00 0.00 0.00 35 936.9
20260901090003 94 5 0.0 0.0 0.00 0.00 0.00 35 936.9
20260901085003 94 5 0.0 0.0 0.00 0.00 0.00 35 936.9
20260901084003 94 5 0.0 0.0 0.00 0.00 0.00 35 936.9
20260901082004 94 355 0.0 0.0 0.00 0.00 0.00 35 936.9
20260901081004 94 315 0.0 0.0 0.00 0.00 0.00 35 936.9
20260901080003 94 295 0.0 0.0 0.00 0.00 0.00 35 936.9
20260901075003 94 295 0.0 0.0 0.00 0.00 0.00 35 936.9
20260901074004 94 295 0.0 0.0 0.00 0.00 0.00 35 936.9
20260901073004 94 295 0.0 0.0 0.00 0.00 0.00 35 936.9
20260901071005 94 295 0.0 0.0 0.00 0.00 0.00 35 936.9
20260901065004 94 295 0.0 0.0 0.00 0.00 0.00 35 936.9
20260901064004 94 295 0.0 0.0 0.00 0.00 0.00 35 936.9
20260901063004 94 295 0.0 0.0 0.00 0.00 0.00 35 936.9
20260901062004 94 295 0.0 0.0 0.00 0.00 0.00 35 936.9
20260901061004 94 295 0.0 0.0 0.00 0.00 0.00 35 936.9
20260901060004 94 295 0.0 0.0 0.00 0.00 0.00 35 936.9
20260901055004 94 295 0.0 0.0 0.00 0.00 0.00 35 936.9
20260901054004 94 295 0.0 0.0 0.00 0.00 0.00 35 936.9
20260901053003 94 295 0.0 0.0 0.00 0.00 0.00 35 936.9
20260901050003 94 295 0.0 0.0 0.00 0.00 0.00 35 936.9
20260901045004 94 295 0.0 0.0 0.00 0.00 0.00 35 936.9
20260901044004 94 295 0.0 0.0 0.00 0.00 0.00 35 936.9
20260901043003 94 294 0.0 0.0 0.00 0.00 0.00 35 936.9
20260901041003 94 286 0.0 0.0 0.00 0.00 0.00 35 936.9
20260901040003 94 272 0.0 2.0 0.00 0.00 0.00 35 936.9
20260901035003 94 306 0.0 3.0 0.00 0.00 0.00 35 936.9
20260901034003 94 286 1.0 6.0 0.00 0.00 0.00 35 936.9
20260901033003 94 293 2.0 10.0 0.00 0.00 0.00 35 936.9
20260901032003 94 285 4.0 10.0 0.00 0.00 0.00 35 936.9
20260901031004 94 275 1.0 12.0 0.00 0.00 0.00 35 936.9
20260901030003 94 289 1.0 12.0 0.00 0.00 0.00 35 936.9
20260901025004 94 319 2.0 5.0 0.00 0.00 0.00 35 936.9
20260901024003 94 306 0.0 0.0 0.00 0.00 0.00 35 936.9
20260901023003 94 303 1.0 9.0 0.00 0.00 0.00 35 936.9
20260901022003 94 285 3.0 9.0 0.00 0.00 0.00 35 936.9
20260901021004 94 297 1.0 10.0 0.00 0.00 0.00 35 936.9
20260901020004 94 295 6.0 12.0 0.00 0.00 0.00 35 936.9
20260901015004 94 291 1.0 5.0 0.00 0.00 0.00 35 936.9
20260901013004 94 279 5.0 12.0 0.00 0.00 0.00 35 936.9
20260901012003 94 299 3.0 12.0 0.00 0.00 0.00 35 936.9
20260901011004 94 284 3.0 7.0 0.00 0.00 0.00 35 936.9
20260901010004 94 314 2.0 14.0 0.00 0.00 0.00 35 936.9
20260901005003 94 318 2.0 13.0 0.00 0.00 0.00 35 936.9
20260901004004 94 302 5.0 13.0 0.00 0.00 0.00 35 936.9
20260901003003 94 301 6.0 14.0 0.00 0.00 0.00 35 936.9
20260901002004 94 299 7.0 16.0 0.00 0.00 0.00 35 936.9
20260901001004 94 307 7.0 16.0 0.00 0.00 0.00 35 936.9
20260901000003 94 319 6.0 18.0 0.00 0.00 0.00 35 936.9
20260831235004 94 296 7.0 16.0 0.00 0.00 0.00 35 936.9
20260831233003 94 305 10.0 16.0 0.00 0.00 0.00 35 936.9
20260831232004 94 299 7.0 15.0 0.00 0.00 0.00 35 936.9
20260831231004 94 306 7.0 14.0 0.00 0.00 0.00 35 936.9
20260831230003 94 313 5.0 15.0 0.00 0.00 0.00 35 936.9
20260831225003 94 303 2.0 15.0 0.00 0.00 0.00 35 936.9
20260831153004 94 136 0.0 0.0 0.00 0.00 0.00 35 936.9
20260831152004 94 150 0.0 0.0 0.00 0.00 0.00 35 936.9
20260831151003 94 153 0.0 0.0 0.00 0.00 0.00 35 936.9
20260831150003 94 160 0.0 0.0 0.00 0.00 0.00 35 936.9
20260831145003 94 160 0.0 0.0 0.00 0.00 0.00 35 936.9
20260831141004 94 69 0.0 0.0 0.00 0.00 0.00 35 936.9
20260831140004 94 69 0.0 0.0 0.00 0.00 0.00 35 936.9
20260831134004 94 69 0.0 0.0 0.00 0.00 0.00 35 936.9
20260831121003 94 91 0.0 0.0 0.00 0.00 0.00 35 936.9
20260831120003 94 92 0.0 0.0 0.00 0.00 0.00 35 936.9
20260831115003 94 91 0.0 0.0 0.00 0.00 0.00 35 936.9
20260831114004 94 91 0.0 0.0 0.00 0.00 0.00 35 936.9
20260831113003 94 91 0.0 0.0 0.00 0.00 0.00 35 936.9
20260831111003 94 83 0.0 0.0 0.00 0.00 0.00 35 936.9
20260831110004 94 82 0.0 0.0 0.00 0.00 0.00 35 936.9
20260831105004 94 82 0.0 0.0 0.00 0.00 0.00 35 936.9
20260831103004 94 82 0.0 0.0 0.00 0.00 0.00 35 936.9
20260831102004 94 82 0.0 0.0 0.00 0.00 0.00 35 936.9